This demonstration page uses our WeatherBlox Daily Observations layout. Learn more.

Left ArrowRight Arrow

34.02893, -84.19858

Hourly Observations for August 8, 2020

Temp ( °F °C ) Dew Point ( °F °C ) Humidity (%) Winds ( mph kmh ) Pressure ( in mb ) Visibility ( mi km ) Precip ( " mm )
12:53 am 00:53 Clear 71 21.7 70 21.1 96 96 Calm 30.07 1018 9 14 0.00 0.00
1:53 am 01:53 Clear with Mist and Fog 71 21.7 70 21.1 96 96 Calm 30.06 1018 6 10 0.00 0.00
2:53 am 02:53 Mostly Clear 71 21.7 69 20.6 94 94 N 3 6 30.06 1018 10 16 0.00 0.00
3:53 am 03:53 Clear 70 21.1 69 20.6 97 97 Calm 30.06 1018 9 14 0.00 0.00
4:53 am 04:53 Clear 69 20.6 69 20.6 100 100 Calm 30.07 1018 7 11 0.00 0.00
5:53 am 05:53 Clear with Mist and Fog 69 20.6 69 20.6 100 100 Calm 30.08 1019 5 8 0.00 0.00
6:53 am 06:53 Clear with Mist and Fog 69 20.6 69 20.6 100 100 Calm 30.11 1020 5 8 0.00 0.00
7:53 am 07:53 Sunny 71 21.7 70 21.1 96 96 N 3 6 30.12 1020 7 11 0.00 0.00
8:53 am 08:53 Sunny 76 24.4 70 21.1 82 82 Calm 30.14 1021 10 16 0.00 0.00
9:53 am 09:53 Sunny 79 26.1 71 21.7 77 77 Calm 30.13 1020 10 16 0.00 0.00
10:53 am 10:53 Sunny 82 27.8 70 21.1 67 67 Calm 30.13 1020 10 16 0.00 0.00
11:53 am 11:53 Sunny 86 30 71 21.7 61 61 NE 3 6 30.13 1020 10 16 0.00 0.00
12:53 pm 12:53 Mostly Sunny 88 31.1 70 21.1 55 55 VRB 3 6 30.12 1020 10 16 0.00 0.00
1:53 pm 13:53 Mostly Sunny 89 31.7 68 20 50 50 S 6 9 30.11 1020 10 16 0.00 0.00
2:53 pm 14:53 Mostly Sunny 90 32.2 69 20.6 50 50 Calm 30.08 1019 10 16 0.00 0.00
3:53 pm 15:53 Mostly Sunny 91 32.8 67 19.4 45 45 WSW 10 17 30.06 1018 10 16 0.00 0.00
4:53 pm 16:53 Partly Cloudy 92 33.3 67 19.4 44 44 WNW 8 13 30.05 1018 10 16 0.00 0.00
5:53 pm 17:53 Sunny 91 32.8 66 18.9 44 44 SW 3 6 30.06 1018 10 16 0.00 0.00
6:53 pm 18:53 Sunny 90 32.2 68 20 48 48 W 3 6 30.06 1018 10 16 0.00 0.00
7:53 pm 19:53 Sunny 82 27.8 71 21.7 69 69 Calm 30.07 1018 10 16 0.00 0.00
8:53 pm 20:53 Cloudy 84 28.9 71 21.7 65 65 SW 3 6 30.07 1018 10 16 0.00 0.00
9:53 pm 21:53 Mostly Cloudy 80 26.7 71 21.7 74 74 VRB 5 7 30.09 1019 10 16 0.00 0.00
10:53 pm 22:53 Mostly Clear 78 25.6 71 21.7 79 79 SSE 6 9 30.10 1019 10 16 0.00 0.00
11:53 pm 23:53 Clear 76 24.4 72 22.2 88 88 S 3 6 30.10 1019 10 16 0.00 0.00

Powered by AerisWeather